This is the latest recevied weather packets stored in our database for station/object N8QF-1. If no packets are shown the sender has not sent any weather packets the latest 10 day(s).
| Time | Temp. | Humidity | Pressure | Rain* | Wind** | Luminosity | Snow |
|---|---|---|---|---|---|---|---|
| 1777756343 | 10.56° C | 42% | 1016.9 hPa | 0 mm | - | - | - |
| 1777755741 | 10.56° C | 42% | 1016.9 hPa | 0 mm | - | - | - |
| 1777755441 | 10.56° C | 42% | 1016.9 hPa | 0 mm | - | - | - |
| 1777755140 | 10.56° C | 41% | 1016.9 hPa | 0 mm | - | - | - |
| 1777754840 | 10.56° C | 41% | 1016.9 hPa | 0 mm | - | - | - |
| 1777754540 | 10.56° C | 41% | 1016.8 hPa | 0 mm | - | - | - |
| 1777754239 | 10.56° C | 41% | 1016.9 hPa | 0 mm | - | - | - |
| 1777753938 | 10.56° C | 39% | 1016.9 hPa | 0 mm | - | - | - |
| 1777753638 | 10.56° C | 40% | 1017 hPa | 0 mm | - | - | - |
| 1777753337 | 10.56° C | 41% | 1017 hPa | 0 mm | - | - | - |
| 1777753037 | 10.56° C | 41% | 1017.1 hPa | 0 mm | - | - | - |
| 1777752736 | 10.56° C | 40% | 1017.2 hPa | 0 mm | - | - | - |
| 1777752436 | 10.56° C | 40% | 1017.1 hPa | 0 mm | - | - | - |
| 1777751833 | 10.56° C | 41% | 1017.3 hPa | 0 mm | - | - | - |
| 1777751532 | 10.56° C | 41% | 1017.2 hPa | 0 mm | - | - | - |
| 1777751232 | 10.56° C | 40% | 1017.2 hPa | 0 mm | - | - | - |
| 1777750631 | 10.56° C | 41% | 1017.3 hPa | 0 mm | - | - | - |
| 1777750330 | 11.11° C | 41% | 1017.2 hPa | 0 mm | - | - | - |
| 1777749729 | 10.56° C | 43% | 1017.2 hPa | 0 mm | - | - | - |
| 1777749429 | 10.56° C | 41% | 1017.3 hPa | 0 mm | - | - | - |
| 1777749128 | 10.56° C | 41% | 1017.5 hPa | 0 mm | - | - | - |
| 1777748827 | 10.56° C | 42% | 1017.5 hPa | 0 mm | - | - | - |
| 1777748527 | 10° C | 42% | 1017.5 hPa | 0 mm | - | - | - |
| 1777748226 | 10.56° C | 43% | 1017.5 hPa | 0 mm | - | - | - |
| 1777747926 | 10.56° C | 40% | 1017.6 hPa | 0 mm | - | - | - |
* Rain latest hour (hover to see other rain measurements)
** Current wind speed in m/s (hover to see current wind gust speed)